Time,TemperatureF,DewpointF,PressureIn,WindDirection,WindDirectionDegrees,WindSpeedMPH,WindSpeedGustMPH,Humidity,HourlyPrecipIn,Conditions,Clouds,dailyrainin,SoftwareType,DateUTC
2013-02-21 00:01:00,31.0,26.0,29.99,South,170,5.0,-999.0,81,-99.99,,,-99.99,,2013-02-21 06:01:00,
2013-02-21 00:11:00,31.0,26.0,29.99,South,170,5.0,-999.0,81,-99.99,,,-99.99,,2013-02-21 06:11:00,
2013-02-21 00:21:00,31.0,26.0,29.99,ESE,123,6.0,-999.0,81,-99.99,,,-99.99,,2013-02-21 06:21:00,
2013-02-21 00:31:00,31.0,26.0,29.98,East,94,5.0,-999.0,82,-99.99,,,-99.99,,2013-02-21 06:31:00,
2013-02-21 00:41:00,31.0,26.0,29.98,East,94,5.0,-999.0,82,-99.99,,,-99.99,,2013-02-21 06:41:00,
2013-02-21 00:51:00,31.0,26.0,29.98,East,86,5.0,-999.0,82,-99.99,,,-99.99,,2013-02-21 06:51:00,
2013-02-21 01:01:00,31.0,26.0,29.97,NE,40,5.0,-999.0,82,-99.99,,,-99.99,,2013-02-21 07:01:00,
2013-02-21 01:11:00,30.0,25.0,29.96,ESE,114,5.0,-999.0,80,-99.99,,,-99.99,,2013-02-21 07:11:00,
2013-02-21 01:21:00,30.0,25.0,29.96,ESE,114,5.0,-999.0,80,-99.99,,,-99.99,,2013-02-21 07:21:00,
2013-02-21 01:32:00,30.0,25.0,29.94,ESE,109,6.0,-999.0,80,-99.99,,,-99.99,,2013-02-21 07:32:00,
2013-02-21 01:42:00,30.0,25.0,29.94,NE,54,6.0,-999.0,80,-99.99,,,-99.99,,2013-02-21 07:42:00,
2013-02-21 01:52:00,30.0,25.0,29.94,NE,54,6.0,-999.0,80,-99.99,,,-99.99,,2013-02-21 07:52:00,
2013-02-21 02:01:00,30.0,25.0,29.93,SSE,161,6.0,-999.0,82,-99.99,,,-99.99,,2013-02-21 08:01:00,
2013-02-21 02:11:00,30.0,25.0,29.93,ESE,105,6.0,-999.0,83,-99.99,,,-99.99,,2013-02-21 08:11:00,
2013-02-21 02:21:00,30.0,25.0,29.93,ESE,105,6.0,-999.0,83,-99.99,,,-99.99,,2013-02-21 08:21:00,
2013-02-21 02:32:00,30.0,26.0,29.93,ENE,78,5.0,-999.0,85,-99.99,,,-99.99,,2013-02-21 08:32:00,
2013-02-21 02:41:00,30.0,26.0,29.93,ENE,78,5.0,-999.0,85,-99.99,,,-99.99,,2013-02-21 08:41:00,
2013-02-21 02:52:00,30.0,26.0,29.91,ESE,102,5.0,-999.0,85,-99.99,,,-99.99,,2013-02-21 08:52:00,
2013-02-21 03:01:00,30.0,26.0,29.90,East,93,5.0,-999.0,85,-99.99,,,-99.99,,2013-02-21 09:01:00,
2013-02-21 03:11:00,30.0,26.0,29.90,East,93,5.0,-999.0,85,-99.99,,,-99.99,,2013-02-21 09:11:00,
2013-02-21 03:22:00,30.0,26.0,29.88,East,79,5.0,-999.0,85,-99.99,,,-99.99,,2013-02-21 09:22:00,
2013-02-21 03:31:00,30.0,26.0,29.87,SE,136,6.0,-999.0,86,-99.99,,,-99.99,,2013-02-21 09:31:00,
2013-02-21 03:41:00,30.0,26.0,29.87,SE,136,6.0,-999.0,86,-99.99,,,-99.99,,2013-02-21 09:41:00,
2013-02-21 03:51:00,30.0,27.0,29.84,ESE,121,5.0,-999.0,87,-99.99,,,-99.99,,2013-02-21 09:51:00,
2013-02-21 04:01:00,30.0,26.0,29.83,East,90,7.0,-999.0,85,-99.99,,,-99.99,,2013-02-21 10:01:00,
2013-02-21 04:11:00,30.0,26.0,29.83,East,90,7.0,-999.0,85,-99.99,,,-99.99,,2013-02-21 10:11:00,
2013-02-21 04:21:00,29.0,25.0,29.80,ESE,115,7.0,-999.0,86,-99.99,,,-99.99,,2013-02-21 10:21:00,
2013-02-21 04:31:00,29.0,26.0,29.80,ESE,110,6.0,-999.0,87,-99.99,,,-99.99,,2013-02-21 10:31:00,
2013-02-21 04:41:00,29.0,26.0,29.80,ESE,110,6.0,-999.0,87,-99.99,,,-99.99,,2013-02-21 10:41:00,
2013-02-21 04:51:00,30.0,27.0,29.80,SSE,148,6.0,-999.0,88,-99.99,,,-99.99,,2013-02-21 10:51:00,
2013-02-21 05:01:00,30.0,27.0,29.78,NE,37,6.0,-999.0,89,-99.99,,,-99.99,,2013-02-21 11:01:00,
2013-02-21 05:11:00,30.0,27.0,29.78,NE,37,6.0,-999.0,89,-99.99,,,-99.99,,2013-02-21 11:11:00,
2013-02-21 05:21:00,30.0,27.0,29.74,ENE,78,7.0,-999.0,88,-99.99,,,-99.99,,2013-02-21 11:21:00,
2013-02-21 05:31:00,30.0,27.0,29.78,East,81,7.0,-999.0,87,-99.99,,,-99.99,,2013-02-21 11:31:00,
2013-02-21 05:41:00,30.0,27.0,29.78,East,81,7.0,-999.0,87,-99.99,,,-99.99,,2013-02-21 11:41:00,
2013-02-21 05:51:00,31.0,28.0,29.76,ESE,115,6.0,-999.0,88,-99.99,,,-99.99,,2013-02-21 11:51:00,
2013-02-21 06:01:00,31.0,28.0,29.73,East,91,6.0,-999.0,88,-99.99,,,-99.99,,2013-02-21 12:01:00,
2013-02-21 06:11:00,31.0,28.0,29.73,East,91,6.0,-999.0,88,-99.99,,,-99.99,,2013-02-21 12:11:00,
2013-02-21 06:21:00,31.0,28.0,29.72,ESE,113,8.0,-999.0,88,-99.99,,,-99.99,,2013-02-21 12:21:00,
2013-02-21 06:32:00,31.0,28.0,29.71,ESE,114,7.0,-999.0,87,-99.99,,,-99.99,,2013-02-21 12:32:00,
2013-02-21 06:42:00,32.0,29.0,29.71,ESE,119,7.0,-999.0,87,-99.99,,,-99.99,,2013-02-21 12:42:00,
2013-02-21 06:52:00,32.0,29.0,29.71,ESE,119,7.0,-999.0,87,-99.99,,,-99.99,,2013-02-21 12:52:00,
2013-02-21 07:01:00,32.0,28.0,29.72,ESE,115,6.0,-999.0,86,-99.99,,,-99.99,,2013-02-21 13:01:00,
2013-02-21 07:12:00,32.0,28.0,29.72,ESE,115,6.0,-999.0,86,-99.99,,,-99.99,,2013-02-21 13:12:00,
2013-02-21 07:22:00,32.0,28.0,29.71,ESE,105,6.0,-999.0,85,-99.99,,,-99.99,,2013-02-21 13:22:00,
2013-02-21 07:32:00,32.0,28.0,29.70,SE,130,7.0,-999.0,84,-99.99,,,-99.99,,2013-02-21 13:32:00,
2013-02-21 07:41:00,32.0,28.0,29.70,SE,130,7.0,-999.0,84,-99.99,,,-99.99,,2013-02-21 13:41:00,
2013-02-21 07:51:00,32.0,28.0,29.70,SSE,152,6.0,-999.0,84,-99.99,,,-99.99,,2013-02-21 13:51:00,
2013-02-21 08:02:00,33.0,28.0,29.69,ESE,110,7.0,-999.0,83,-99.99,,,-99.99,,2013-02-21 14:02:00,
2013-02-21 08:11:00,33.0,28.0,29.69,ESE,110,7.0,-999.0,83,-99.99,,,-99.99,,2013-02-21 14:11:00,
2013-02-21 08:21:00,33.0,28.0,29.66,ESE,110,7.0,-999.0,82,-99.99,,,-99.99,,2013-02-21 14:21:00,
2013-02-21 08:32:00,33.0,28.0,29.65,ESE,108,6.0,-999.0,83,-99.99,,,-99.99,,2013-02-21 14:32:00,
2013-02-21 08:42:00,33.0,28.0,29.65,ESE,108,6.0,-999.0,83,-99.99,,,-99.99,,2013-02-21 14:42:00,
2013-02-21 08:52:00,33.0,29.0,29.65,WNW,286,6.0,-999.0,85,-99.99,,,-99.99,,2013-02-21 14:52:00,
2013-02-21 09:01:00,33.0,29.0,29.69,WNW,282,4.0,-999.0,85,-99.99,,,-99.99,,2013-02-21 15:01:00,
2013-02-21 09:12:00,33.0,29.0,29.69,WNW,282,4.0,-999.0,85,-99.99,,,-99.99,,2013-02-21 15:12:00,
2013-02-21 09:21:00,34.0,30.0,29.69,ENE,75,2.0,-999.0,84,-99.99,,,-99.99,,2013-02-21 15:21:00,
2013-02-21 09:32:00,34.0,30.0,29.73,NW,304,3.0,-999.0,85,-99.99,,,-99.99,,2013-02-21 15:32:00,
2013-02-21 09:42:00,34.0,30.0,29.73,NW,304,3.0,-999.0,85,-99.99,,,-99.99,,2013-02-21 15:42:00,
2013-02-21 09:51:00,33.0,30.0,29.75,ENE,74,1.0,-999.0,88,-99.99,,,-99.99,,2013-02-21 15:51:00,
2013-02-21 10:01:00,33.0,30.0,29.74,NE,49,1.0,-999.0,90,-99.99,,,-99.99,,2013-02-21 16:01:00,
2013-02-21 10:12:00,33.0,31.0,29.76,ENE,73,0.0,-999.0,91,-99.99,,,-99.99,,2013-02-21 16:12:00,
2013-02-21 10:21:00,33.0,31.0,29.76,ENE,73,0.0,-999.0,91,-99.99,,,-99.99,,2013-02-21 16:21:00,
2013-02-21 10:32:00,33.0,31.0,29.72,ENE,69,0.0,-999.0,92,-99.99,,,-99.99,,2013-02-21 16:32:00,
2013-02-21 10:42:00,33.0,31.0,29.79,ENE,70,0.0,-999.0,92,-99.99,,,-99.99,,2013-02-21 16:42:00,
2013-02-21 10:52:00,33.0,31.0,29.79,ENE,70,0.0,-999.0,92,-99.99,,,-99.99,,2013-02-21 16:52:00,
2013-02-21 11:01:00,33.0,31.0,29.74,ENE,70,0.0,-999.0,93,-99.99,,,-99.99,,2013-02-21 17:01:00,
2013-02-21 11:11:00,33.0,31.0,29.74,ENE,70,0.0,-999.0,93,-99.99,,,-99.99,,2013-02-21 17:11:00,
2013-02-21 11:21:00,33.0,31.0,29.74,ENE,70,0.0,-999.0,93,-99.99,,,-99.99,,2013-02-21 17:21:00,
2013-02-21 11:32:00,32.0,30.0,29.73,ENE,71,0.0,-999.0,94,-99.99,,,-99.99,,2013-02-21 17:32:00,
2013-02-21 11:42:00,32.0,30.0,29.73,ENE,71,0.0,-999.0,94,-99.99,,,-99.99,,2013-02-21 17:42:00,
2013-02-21 11:52:00,32.0,30.0,29.73,ENE,71,0.0,-999.0,94,-99.99,,,-99.99,,2013-02-21 17:52:00,
2013-02-21 12:02:00,33.0,31.0,29.68,ENE,71,0.0,-999.0,94,-99.99,,,-99.99,,2013-02-21 18:02:00,
2013-02-21 12:11:00,33.0,31.0,29.68,ENE,71,0.0,-999.0,94,-99.99,,,-99.99,,2013-02-21 18:11:00,
2013-02-21 12:22:00,33.0,31.0,29.71,ENE,71,0.0,-999.0,94,-99.99,,,-99.99,,2013-02-21 18:22:00,
2013-02-21 12:31:00,33.0,31.0,29.70,ENE,71,0.0,-999.0,94,-99.99,,,-99.99,,2013-02-21 18:31:00,
2013-02-21 12:42:00,33.0,31.0,29.70,ENE,71,0.0,-999.0,94,-99.99,,,-99.99,,2013-02-21 18:42:00,
2013-02-21 12:51:00,33.0,31.0,29.68,ENE,71,0.0,-999.0,94,-99.99,,,-99.99,,2013-02-21 18:51:00,
2013-02-21 13:01:00,33.0,32.0,29.66,ENE,71,0.0,-999.0,95,-99.99,,,-99.99,,2013-02-21 19:01:00,
2013-02-21 13:12:00,33.0,32.0,29.66,ENE,71,0.0,-999.0,95,-99.99,,,-99.99,,2013-02-21 19:12:00,
2013-02-21 13:21:00,33.0,32.0,29.65,ENE,72,0.0,-999.0,95,-99.99,,,-99.99,,2013-02-21 19:21:00,
2013-02-21 13:31:00,33.0,32.0,29.63,ENE,73,0.0,-999.0,95,-99.99,,,-99.99,,2013-02-21 19:31:00,
2013-02-21 13:41:00,33.0,32.0,29.63,ENE,73,0.0,-999.0,95,-99.99,,,-99.99,,2013-02-21 19:41:00,
2013-02-21 13:51:00,33.0,32.0,29.63,SE,129,0.0,-999.0,95,-99.99,,,-99.99,,2013-02-21 19:51:00,
2013-02-21 14:01:00,33.0,32.0,29.63,ESE,117,0.0,-999.0,95,-99.99,,,-99.99,,2013-02-21 20:01:00,
2013-02-21 14:11:00,33.0,32.0,29.61,East,93,0.0,-999.0,95,-99.99,,,-99.99,,2013-02-21 20:11:00,
2013-02-21 14:21:00,33.0,32.0,29.61,East,93,0.0,-999.0,95,-99.99,,,-99.99,,2013-02-21 20:21:00,
2013-02-21 14:32:00,34.0,33.0,29.61,ESE,119,0.0,-999.0,95,-99.99,,,-99.99,,2013-02-21 20:32:00,
2013-02-21 14:41:00,34.0,33.0,29.61,ESE,119,0.0,-999.0,95,-99.99,,,-99.99,,2013-02-21 20:41:00,
2013-02-21 14:52:00,34.0,33.0,29.61,ESE,111,6.0,-999.0,95,-99.99,,,-99.99,,2013-02-21 20:52:00,
2013-02-21 15:02:00,34.0,33.0,29.60,SE,142,4.0,-999.0,95,-99.99,,,-99.99,,2013-02-21 21:02:00,
2013-02-21 15:11:00,34.0,32.0,29.60,ESE,122,4.0,-999.0,94,-99.99,,,-99.99,,2013-02-21 21:11:00,
2013-02-21 15:21:00,34.0,32.0,29.60,ESE,122,4.0,-999.0,94,-99.99,,,-99.99,,2013-02-21 21:21:00,
2013-02-21 15:31:00,34.0,33.0,29.60,ESE,102,5.0,-999.0,95,-99.99,,,-99.99,,2013-02-21 21:31:00,
2013-02-21 15:42:00,34.0,33.0,29.60,ESE,102,5.0,-999.0,95,-99.99,,,-99.99,,2013-02-21 21:42:00,
2013-02-21 15:51:00,34.0,33.0,29.60,ESE,102,5.0,-999.0,95,-99.99,,,-99.99,,2013-02-21 21:51:00,
2013-02-21 16:01:00,34.0,33.0,29.61,ESE,121,5.0,-999.0,95,-99.99,,,-99.99,,2013-02-21 22:01:00,
2013-02-21 16:11:00,34.0,33.0,29.61,ESE,121,5.0,-999.0,95,-99.99,,,-99.99,,2013-02-21 22:11:00,
2013-02-21 16:21:00,34.0,33.0,29.62,SE,135,4.0,-999.0,95,-99.99,,,-99.99,,2013-02-21 22:21:00,
2013-02-21 16:32:00,34.0,33.0,29.62,East,101,4.0,-999.0,95,-99.99,,,-99.99,,2013-02-21 22:32:00,
2013-02-21 16:42:00,34.0,33.0,29.62,SE,137,4.0,-999.0,95,-99.99,,,-99.99,,2013-02-21 22:42:00,
2013-02-21 16:52:00,34.0,33.0,29.62,SE,137,4.0,-999.0,95,-99.99,,,-99.99,,2013-02-21 22:52:00,
2013-02-21 17:01:00,34.0,33.0,29.63,ESE,113,3.0,-999.0,95,-99.99,,,-99.99,,2013-02-21 23:01:00,
2013-02-21 17:11:00,34.0,33.0,29.63,ESE,113,3.0,-999.0,95,-99.99,,,-99.99,,2013-02-21 23:11:00,
2013-02-21 17:21:00,34.0,33.0,29.65,South,175,2.0,-999.0,96,-99.99,,,-99.99,,2013-02-21 23:21:00,
2013-02-21 17:32:00,34.0,33.0,29.65,South,182,1.0,-999.0,96,-99.99,,,-99.99,,2013-02-21 23:32:00,
2013-02-21 17:41:00,34.0,33.0,29.65,South,182,1.0,-999.0,96,-99.99,,,-99.99,,2013-02-21 23:41:00,
2013-02-21 17:52:00,35.0,34.0,29.66,South,182,2.0,-999.0,96,-99.99,,,-99.99,,2013-02-21 23:52:00,
2013-02-21 18:01:00,35.0,34.0,29.66,South,181,1.0,-999.0,96,-99.99,,,-99.99,,2013-02-22 00:01:00,
2013-02-21 18:11:00,35.0,34.0,29.66,South,181,1.0,-999.0,96,-99.99,,,-99.99,,2013-02-22 00:11:00,
2013-02-21 18:21:00,35.0,34.0,29.67,South,181,2.0,-999.0,96,-99.99,,,-99.99,,2013-02-22 00:21:00,
2013-02-21 18:32:00,35.0,34.0,29.67,South,187,2.0,-999.0,96,-99.99,,,-99.99,,2013-02-22 00:32:00,
2013-02-21 18:41:00,35.0,34.0,29.67,South,187,2.0,-999.0,96,-99.99,,,-99.99,,2013-02-22 00:41:00,
2013-02-21 18:51:00,35.0,34.0,29.67,SSW,202,4.0,-999.0,96,-99.99,,,-99.99,,2013-02-22 00:51:00,
2013-02-21 19:01:00,35.0,34.0,29.68,SSW,196,3.0,-999.0,96,-99.99,,,-99.99,,2013-02-22 01:01:00,
2013-02-21 19:11:00,35.0,34.0,29.68,SSW,196,3.0,-999.0,96,-99.99,,,-99.99,,2013-02-22 01:11:00,
2013-02-21 19:21:00,35.0,34.0,29.68,South,184,2.0,-999.0,96,-99.99,,,-99.99,,2013-02-22 01:21:00,
2013-02-21 19:32:00,35.0,34.0,29.69,SSW,205,3.0,-999.0,96,-99.99,,,-99.99,,2013-02-22 01:32:00,
2013-02-21 19:42:00,35.0,34.0,29.69,SSW,205,3.0,-999.0,96,-99.99,,,-99.99,,2013-02-22 01:42:00,
2013-02-21 19:51:00,36.0,35.0,29.70,WSW,249,4.0,-999.0,96,-99.99,,,-99.99,,2013-02-22 01:51:00,
2013-02-21 20:02:00,36.0,35.0,29.70,SSW,205,3.0,-999.0,96,-99.99,,,-99.99,,2013-02-22 02:02:00,
2013-02-21 20:11:00,36.0,35.0,29.70,SSW,205,3.0,-999.0,96,-99.99,,,-99.99,,2013-02-22 02:11:00,
2013-02-21 20:21:00,36.0,35.0,29.69,SSW,207,2.0,-999.0,96,-99.99,,,-99.99,,2013-02-22 02:21:00,
2013-02-21 20:32:00,36.0,35.0,29.70,SSW,207,2.0,-999.0,96,-99.99,,,-99.99,,2013-02-22 02:32:00,
2013-02-21 20:42:00,36.0,35.0,29.70,SSW,209,2.0,-999.0,96,-99.99,,,-99.99,,2013-02-22 02:42:00,
2013-02-21 20:52:00,36.0,35.0,29.70,SSW,209,2.0,-999.0,96,-99.99,,,-99.99,,2013-02-22 02:52:00,
2013-02-21 21:01:00,36.0,35.0,29.71,SSW,211,2.0,-999.0,96,-99.99,,,-99.99,,2013-02-22 03:01:00,
2013-02-21 21:11:00,36.0,35.0,29.71,SSW,211,2.0,-999.0,96,-99.99,,,-99.99,,2013-02-22 03:11:00,
2013-02-21 21:21:00,36.0,35.0,29.72,WSW,238,5.0,-999.0,95,-99.99,,,-99.99,,2013-02-22 03:21:00,
2013-02-21 21:32:00,36.0,35.0,29.72,WSW,238,5.0,-999.0,95,-99.99,,,-99.99,,2013-02-22 03:32:00,
2013-02-21 21:41:00,36.0,35.0,29.72,WSW,238,5.0,-999.0,95,-99.99,,,-99.99,,2013-02-22 03:41:00,
2013-02-21 21:51:00,36.0,34.0,29.75,WNW,300,9.0,-999.0,93,-99.99,,,-99.99,,2013-02-22 03:51:00,
2013-02-21 22:02:00,36.0,34.0,29.75,WNW,300,9.0,-999.0,93,-99.99,,,-99.99,,2013-02-22 04:02:00,
2013-02-21 22:11:00,36.0,34.0,29.75,West,265,8.0,-999.0,91,-99.99,,,-99.99,,2013-02-22 04:11:00,
2013-02-21 22:21:00,36.0,34.0,29.75,West,265,8.0,-999.0,91,-99.99,,,-99.99,,2013-02-22 04:21:00,
2013-02-21 22:32:00,36.0,34.0,29.75,West,259,7.0,-999.0,91,-99.99,,,-99.99,,2013-02-22 04:32:00,
2013-02-21 22:42:00,36.0,34.0,29.75,West,259,7.0,-999.0,91,-99.99,,,-99.99,,2013-02-22 04:42:00,
2013-02-21 22:51:00,35.0,33.0,29.76,West,280,9.0,-999.0,91,-99.99,,,-99.99,,2013-02-22 04:51:00,
2013-02-21 23:02:00,35.0,33.0,29.77,WNW,300,8.0,-999.0,91,-99.99,,,-99.99,,2013-02-22 05:02:00,
2013-02-21 23:12:00,35.0,33.0,29.77,WNW,300,8.0,-999.0,91,-99.99,,,-99.99,,2013-02-22 05:12:00,
2013-02-21 23:22:00,35.0,33.0,29.78,SW,236,8.0,-999.0,91,-99.99,,,-99.99,,2013-02-22 05:22:00,
2013-02-21 23:32:00,35.0,33.0,29.78,SW,236,8.0,-999.0,91,-99.99,,,-99.99,,2013-02-22 05:32:00,
2013-02-21 23:41:00,35.0,33.0,29.78,SW,236,8.0,-999.0,91,-99.99,,,-99.99,,2013-02-22 05:41:00,
2013-02-21 23:52:00,35.0,33.0,29.78,WNW,282,6.0,-999.0,91,-99.99,,,-99.99,,2013-02-22 05:52:00,